Location: Ajisawe
(8.4333°N, 4.3833°E)
Time: 13:22:08
(UTC+00:00)

SR - Pass Details

Date: 24 April 2021
Orbit: 573 x 882 km, 66.7° (Epoch: 15 May)

Event Time Altitude Azimuth Distance (km) Brightness Sun altitude
Rises 04:45:26 0° 199° (SSW) 3,081 ? -11.4°
Reaches altitude 10° 04:47:41 10° 199° (SSW) 2,210 ? -10.8°
Maximum altitude 04:52:45 87° 109° (ESE) 777 ? -9.6°
Drops below altitude 10° 04:58:19 10° 21° (NNE) 2,408 ? -8.3°
Sets 05:00:51 0° 21° (NNE) 3,378 ? -7.7°
